EHI
0 0 0 0 0 0 0 0 0 0 0 0 0 0 0 0 0 0 0 0 0 0 0 0 0 0 0 0 0 0 0 0 0 0 0 0 0 0 0 0 0 0 0 0
0 0 0 0 0 0 0 0 0 0 0 0 0 0 0 0 0 0 0 0 0 0 0 0 0 0 0 0 0 0 0 0 0 0 0 0 0 0 0 0 0 0 0 0
0 0 0 0 0 0 0 0 0 0 0 0 0 0 0 0 0 0 0 0 0 0 0 0 0 0 0 0 0 0 0 0 0 0 0 0 0 0 0 0 0 0 0 0
0 0 0 0 0 0 0 0 0 0 0 0 0 0 0 0 0 0 0 0 0 0 0 0 0 0 0 0 0 0 0 0 0 0 0 0 0 0 0 0 0 0 0 0
0 0 0 0 0 0 0 0 0 0 0 0 0 0 0 0 0 0 0 0 0 0 0 0 0 0 0 0 0 0 0 0 0 0 0 0 0 0 0 0 0 0 0 0
0 0 0 0 0 0 0 0 0 0 0 0 0 0 0 0 0 0 0 0 0 0 0 0 0 0 0 0 0 0 0 0 0 0 0 0 0 0 0 0 0 0 0 0
0 0 0 0 0 0 0 0 0 0 0 0 0 0 0 0 0 0 0 0 0 0 0 0 0 0 0 0 0 0 0 0 0 0 0 0 0 0 0 0 0 0 0 0
0 0 0 0 0 0 0 0 0 0 0 0 0 0 0 0 0 0 0 0 0 0 0 0 0 0 0 0 0 0 0 0 0 0 0 0 0 0 0 0 0 0 0 0
0 0 0 0 0 0 0 0 0 0 0 0 0 0 0 0 0 0 0 0 0 0 0 0 0 0 0 0 0 0 0 0 0 0 0 0 0 0 0 0 0 0 0 0
0 0 0 0 0 0 0 0 0 0 0 0 0 0 0 0 0 0 0 0 0 0 0 0 0 0 0 0 0 0 0 0 0 0 0 0 0 0 0 0 0 0 0 0
0 0 0 0 0 0 0 0 0 0 0 0 0 0 0 0 0 0 0 0 0 0 0 0 0 0 0 0 0 0 0 0 0 0 0 0 0 0 0 0 0 0 0 0
0 0 0 0 0 0 0 0 0 0 0 0 0 0 0 0 0 0 0 0 0 0 0 0 0 0 0 0 0 0 0 0 0 0 0 0 0 0 0 0 0 0 0 0
0 0 0 0 0 0 0 0 0 0 0 0 0 0 0 0 0 0 0 0 0 0 0 0 0 0 0 0 0 0 0 0 0 0 0 0 0 0 0 0 0 0 0 0
0 0 0 0 0 0 0 0 0 0 0 0 0 0 0 0 0 0 0 0 0 0 0 0 0 0 0 0 0 0 0 0 0 0 0 0 0 0 0 0 0 0 0 0
0 0 0 0 0 0 0 0 0 0 0 0 0 0 0 0 0 0 0 0 0 0 0 0 0 0 0 0 0 0 0 0 0 0 0 0 0 0 0 0 0 0 0 0
0 0 0 0 0 0 0 0 0 0 0 0 0 0 0 0 0 0 0 0 0 0 0 0 0 0 0 0 0 0 0 0 0 0 0 0 0 0 0 0 0 0 0 0
0 0 0 0 0 0 0 0 0 0 0 0 0 0 0 0 0 0 0 0 0 0 0 0 0 0 0 0 0 0 0 0 0 0 0 0 0 0 0 0 0 0 0 0
0 0 0 0 0 0 0 0 0 0 0 0 0 0 0 0 0 0 0 0 0 0 0 0 0 0 0 0 0 0 0 0 0 0 0 0 0 0 0 0 0 0 0 0
0 0 0 0 0 0 0 0 0 0 0 0 0 0 0 0 0 0 0 0 0 0 0 0 0 0 0 0 0 0 0 0 0 0 0 0 0 0 0 0 0 0 0 0
0 0 0 0 0 0 0 0 0 0 0 0 0 0 0 0 0 0 0 0 0 0 0 0 0 0 0 0 0 0 0 0 0 0 0 0 0 0 0 0 0 0 0 0
0 0 0 0 0 0 0 0 0 0 0 0 0 0 0 0 0 0 0 0 0 0 0 0 0 0 0 0 0 0 0 0 0 0 0 0 0 0 0 0 0 0 0 0
0 0 0 0 0 0 0 0 0 0 0 0 0 0 0 0 0 0 0 0 0 0 0 0 0 0 0 0 0 0 0 0 0 0 0 0 0 0 0 0 0 0 0 0
0 0 0 0 0 0 0 0 0 0 0 0 0 0 0 0 0 0 0 0 0 0 0 0 0 0 0 0 0 0 0 0 0 0 0 0 0 0 0 0 0 0 0 0
0 0 0 0 0 0 0 0 0 0 0 0 0 0 0 0 0 0 0 0 0 0 0 0 0 0 0 0 0 0 0 0 0 0 0 0 0 0 0 0 0 0 0 0
0 0 0 0 0 0 0 0 0 0 0 0 0 0 0 0 0 0 0 0 0 0 0 0 0 0 0 0 0 0 0 0 0 0 0 0 0 0 0 0 0 0 0 0
0 0 0 0 0 0 0 0 0 0 0 0 0 0 0 0 0 0 0 0 0 0 0 0 0 0 0 0 0 0 0 0 0 0 0 0 0 0 0 0 0 0 0 0
0 0 0 0 0 0 0 0 0 0 0 0 0 0 0 0 0 0 0 0 0 0 0 0 0 0 0 0 0 0 0 0 0 0 0 0 0 0 0 0 0 0 0 0
Wind_Speed
2 3 1 1 1 3 3 4 4 3 4 3 0 1 1 3 3 4 5 6 6 6 5 5 5 4 3 2 2 3 4 5 3 3 3 3 3 3 3 3 4 3 4 4
0 2 3 4 5 4 3 2 2 4 3 2 2 1 1 1 3 4 5 6 7 7 7 6 5 3 2 2 2 4 5 5 4 4 4 4 3 3 3 4 4 4 5 5
3 2 1 1 2 0 2 1 3 2 2 2 2 1 1 1 2 3 4 5 6 6 7 6 5 2 0 1 2 4 5 5 5 4 5 4 4 4 4 4 3 4 4 5
1 1 3 3 2 2 3 1 2 4 5 5 2 1 1 2 2 3 2 4 5 6 6 5 3 1 1 2 2 3 4 4 4 4 4 4 4 5 4 3 3 3 3 4
3 2 2 2 2 4 3 3 3 4 4 3 2 3 4 3 4 3 2 3 4 5 6 4 2 1 2 2 2 3 3 3 3 3 3 3 3 3 2 3 3 3 3 3
3 3 4 4 2 4 3 4 3 5 5 5 5 0 4 2 2 1 2 3 4 5 4 4 2 0 2 2 2 2 2 2 1 1 1 2 2 1 1 1 2 3 3 3
2 2 5 4 1 5 3 7 4 6 5 7 7 5 3 2 1 1 1 3 3 4 4 5 3 1 3 3 2 2 2 2 2 2 2 2 2 1 1 1 1 1 1 2
3 1 5 3 4 6 8 3 5 5 5 6 5 2 2 2 2 2 2 2 2 3 4 4 4 2 2 2 1 1 1 2 3 3 3 3 3 2 0 1 1 2 1 0
7 7 6 3 5 4 6 5 5 5 5 6 5 3 3 2 2 2 2 1 1 2 3 4 4 3 3 3 3 2 2 2 2 2 3 3 3 3 2 1 1 1 1 0
3 7 6 5 4 4 6 5 6 6 6 7 5 5 4 2 1 1 0 1 1 2 2 3 3 3 3 2 3 3 3 2 2 2 2 2 2 2 2 2 2 1 1 1
5 6 3 4 6 7 6 4 5 5 6 7 7 5 5 3 2 2 1 1 1 1 1 2 2 2 1 1 2 2 2 2 2 2 2 2 2 2 2 2 2 1 1 1
9 9 8 8 9 8 8 7 8 8 6 5 7 7 6 4 3 2 2 1 1 1 1 2 2 3 2 1 1 1 1 1 1 1 1 2 1 1 2 2 3 4 2 2
9 7 8 5 6 9 9 9 9 9 9 7 6 7 7 5 4 4 3 3 4 4 3 3 2 3 3 2 1 1 0 0 0 1 1 1 1 1 1 2 4 7 7 6
5 5 5 6 7 9 9 10 9 8 8 7 7 7 6 6 5 5 6 6 5 4 4 4 4 5 4 2 2 1 1 1 1 1 1 2 1 1 1 1 2 2 4 7
10 10 9 7 7 8 8 7 7 7 7 6 6 7 8 8 8 9 8 5 4 5 5 5 5 5 3 1 2 2 2 2 2 2 2 2 2 2 2 2 1 1 2 3
11 8 5 7 9 10 8 8 9 10 9 9 8 10 11 11 9 8 6 6 6 6 7 6 6 5 3 3 2 2 2 6 6 4 3 3 2 2 1 1 1 2 2 2
10 11 10 9 10 11 11 11 12 13 11 11 13 12 9 8 7 7 7 7 7 7 6 6 7 5 5 5 5 3 3 5 7 4 3 2 2 1 0 1 2 2 3 3
17 19 16 14 13 12 13 12 11 11 11 13 12 8 9 10 11 12 10 7 5 5 6 7 6 4 5 6 5 4 4 4 3 3 3 2 2 1 1 2 2 3 3 2
14 14 14 14 13 13 13 12 10 11 10 9 9 11 12 12 12 11 8 8 8 8 9 8 9 7 6 8 9 5 6 6 5 4 3 4 3 2 2 2 3 3 3 2
12 12 13 13 11 10 11 11 10 10 9 10 10 9 9 10 10 8 8 9 10 10 8 7 7 7 7 9 12 7 7 7 6 5 4 3 3 2 2 3 3 3 3 3
12 12 12 12 11 10 11 11 10 11 11 11 12 13 13 11 8 8 7 8 9 9 7 8 7 7 7 8 12 7 8 7 6 5 5 4 3 3 3 4 4 4 4 4
9 11 12 11 10 10 10 9 10 12 11 11 12 11 9 8 8 8 8 8 8 9 8 7 7 9 10 10 7 8 8 7 6 5 5 5 4 4 5 5 5 5 5 5
6 8 9 10 11 11 9 9 11 12 12 13 13 12 11 10 9 8 8 9 7 8 7 7 10 13 14 9 7 8 8 8 7 7 6 5 5 5 6 7 6 6 6 6
4 5 6 7 6 6 7 9 11 11 12 12 12 13 11 8 6 8 7 8 13 12 9 9 13 13 13 7 7 8 8 8 7 7 6 5 5 5 6 6 6 6 6 7
5 4 4 5 6 7 9 9 8 9 9 8 9 10 10 9 9 9 8 8 10 11 8 9 13 13 10 7 8 8 7 7 7 6 6 5 5 5 6 6 6 6 6 6
4 4 3 4 5 5 4 4 5 7 8 8 8 8 8 7 7 6 6 8 10 10 8 6 7 10 9 8 8 7 6 6 7 6 6 6 6 6 6 6 7 6 6 6
4 3 2 3 3 3 3 4 5 6 7 8 8 8 8 8 7 7 7 6 7 7 7 6 7 7 7 7 6 5 5 5 6 6 6 6 6 6 6 7 6 5 5 5
Wind_Direction
280 294 173 59 126 151 152 173 203 226 172 158 158 353 346 345 353 12 14 11 5 353 342 339 340 344 4 25 57 80 77 62 39 30 42 54 56 58 53 48 41 27 28 24
303 28 66 61 38 66 57 68 115 119 114 115 139 169 226 321 359 11 5 0 355 348 340 333 327 327 355 28 59 88 87 74 57 50 47 45 57 65 60 48 33 28 25 22
231 232 349 349 310 117 122 80 109 124 126 163 225 265 288 323 342 338 342 343 341 335 328 321 312 300 318 71 74 83 84 76 66 59 53 40 48 53 41 31 22 18 15 16
145 103 233 245 257 168 136 163 156 154 174 191 221 314 308 241 253 276 304 326 328 326 325 319 313 299 137 110 98 93 85 73 59 51 53 45 45 43 29 18 10 356 359 5
122 145 269 281 180 161 163 249 213 188 181 156 99 16 312 240 216 231 265 301 309 315 314 319 323 285 146 124 109 98 89 77 64 50 45 45 48 44 30 22 2 344 348 353
118 166 237 246 222 159 122 266 217 173 170 147 127 160 278 277 218 257 293 307 317 327 335 350 349 126 152 144 127 112 89 60 53 59 61 51 23 3 19 27 350 335 345 346
129 219 267 254 181 126 167 243 199 171 170 163 181 207 241 272 260 308 311 315 333 350 1 358 356 101 153 149 156 156 114 66 46 45 52 32 334 283 247 239 252 281 350 8
149 221 264 235 158 180 213 199 157 161 167 174 196 211 214 220 255 286 299 326 356 7 6 3 9 42 100 98 70 108 100 75 47 30 27 20 357 338 315 193 213 211 190 151
186 213 235 236 209 199 159 157 172 171 175 164 169 186 184 204 237 265 254 258 17 31 13 11 15 36 64 37 27 39 44 52 52 53 47 37 25 9 1 340 244 251 244 172
235 258 245 233 210 170 176 174 178 171 162 162 168 171 170 184 221 251 274 153 101 64 34 14 15 35 44 28 30 38 30 27 42 42 45 43 39 22 1 340 322 318 341 20
241 261 252 240 206 188 181 168 154 155 164 169 164 168 173 186 205 213 204 110 99 82 9 337 347 7 12 26 53 47 23 14 38 63 65 64 60 43 19 359 334 319 345 27
216 215 190 219 206 180 170 181 177 167 168 174 174 177 177 189 199 198 205 201 224 262 277 302 326 327 330 357 54 92 54 21 26 46 61 78 75 47 52 71 52 66 92 115
209 203 193 219 187 175 180 188 185 180 180 183 185 180 178 188 197 198 211 221 229 238 247 261 283 292 290 293 273 187 210 255 188 120 121 128 138 122 56 17 43 55 54 70
194 147 185 203 191 186 186 189 186 188 191 186 180 177 179 187 193 204 218 222 222 230 239 240 250 268 274 275 245 229 210 197 154 145 141 140 136 123 109 83 33 0 13 32
197 190 197 193 185 183 183 171 173 194 200 200 189 185 186 191 204 216 221 211 210 233 241 230 235 253 261 242 201 183 150 124 104 97 97 98 94 86 77 70 49 342 332 347
195 193 191 175 181 183 175 176 186 204 204 202 199 204 204 203 208 214 213 194 197 226 231 218 224 231 206 182 169 156 153 145 132 119 109 103 96 91 78 44 325 297 291 293
162 186 193 194 193 189 189 191 200 207 205 205 210 209 202 199 205 216 218 208 209 224 225 215 225 212 183 175 172 168 158 154 145 134 134 135 133 135 180 271 277 277 280 286
195 196 190 188 188 193 200 203 205 205 204 211 209 193 189 195 208 217 216 198 198 230 240 230 223 195 182 176 174 173 169 166 164 166 167 176 187 211 234 251 259 263 276 301
205 196 189 190 188 189 196 202 207 210 209 198 190 196 202 207 213 214 196 176 190 220 239 227 215 200 194 192 181 179 180 181 183 188 190 197 198 215 234 251 257 249 238 231
203 196 191 193 190 186 195 200 202 205 204 193 194 200 206 213 210 198 182 191 206 214 217 203 197 203 204 198 188 187 190 192 194 195 196 201 214 235 249 252 248 238 225 220
202 194 192 194 197 198 201 199 195 203 202 190 192 201 210 213 197 180 178 207 227 220 212 201 198 207 203 193 190 190 193 196 198 201 203 208 219 236 243 239 231 225 223 224
203 197 199 200 198 205 208 199 198 204 198 194 200 203 201 200 189 188 199 211 222 208 200 205 209 211 202 188 189 192 196 199 202 203 205 207 214 229 234 230 227 226 227 230
214 203 200 200 205 212 208 199 202 203 200 199 199 198 200 201 189 186 211 221 220 208 198 208 212 208 195 185 190 195 199 202 206 208 209 209 216 226 232 232 228 228 231 234
258 223 212 206 199 201 209 213 207 207 206 204 204 201 197 193 195 206 210 207 203 202 206 215 213 203 186 189 191 197 202 206 209 208 206 210 219 228 232 232 232 234 237 241
312 271 233 196 193 209 222 224 211 207 203 205 207 203 198 195 196 203 203 210 206 199 208 213 205 193 188 193 196 200 203 206 206 201 202 208 218 224 226 226 230 237 241 243
316 309 279 235 221 214 209 205 211 212 205 207 211 204 199 198 199 191 191 203 200 199 201 196 186 187 193 196 198 197 198 202 204 205 207 209 216 217 219 222 229 233 239 242
242 248 266 271 244 211 192 191 209 220 214 212 212 204 196 193 193 196 195 195 194 197 197 188 181 183 186 187 185 186 191 199 206 210 210 210 210 213 217 221 225 229 233 240